Total_Precipitation_Accumulation
0.11 0.24 0.59 1.03 1.83 2.03 1.50 0.96 0.73 0.71 0.76 0.75 0.66 0.64 0.73 0.91 1.34 2.20 1.98 1.50 1.23 1.31 1.61 1.75 2.08 2.02 1.92 1.76 1.75 1.83 1.81 1.67 1.53 1.50 1.53 1.53 1.55 1.48 1.49 1.55 1.55 1.60 1.59 1.62 1.71 1.64 1.60 1.60 1.68
0.22 0.47 0.86 1.54 2.11 1.64 1.38 0.85 0.52 0.58 0.65 0.79 0.79 0.67 0.61 0.68 0.77 1.11 1.53 1.67 1.12 1.00 1.19 1.35 1.67 1.72 1.71 1.58 1.60 1.64 1.52 1.41 1.37 1.34 1.44 1.50 1.58 1.61 1.59 1.63 1.63 1.63 1.62 1.62 1.65 1.64 1.59 1.61 1.73
0.38 0.62 0.97 1.68 1.38 1.05 1.05 0.69 0.49 0.40 0.57 0.81 0.79 0.59 0.70 0.91 0.95 1.20 1.41 1.40 1.07 0.96 0.99 1.25 1.50 1.56 1.57 1.47 1.44 1.44 1.34 1.30 1.32 1.33 1.36 1.43 1.54 1.65 1.72 1.74 1.76 1.79 1.86 1.78 1.70 1.69 1.58 1.54 1.59
0.52 0.73 1.07 1.17 0.63 0.44 0.50 0.54 0.53 0.51 0.70 0.83 0.71 0.65 0.81 1.06 1.08 1.13 1.12 1.12 0.90 1.01 1.07 1.27 1.56 1.54 1.45 1.34 1.26 1.24 1.25 1.27 1.27 1.31 1.36 1.50 1.55 1.58 1.67 1.73 1.79 1.87 1.83 1.78 1.78 1.80 1.55 1.48 1.54
0.55 0.82 1.20 0.79 0.42 0.31 0.29 0.34 0.42 0.57 0.76 0.89 0.77 0.79 1.08 1.15 0.97 0.92 0.91 1.04 1.02 1.15 1.21 1.33 1.57 1.55 1.42 1.27 1.19 1.15 1.11 1.16 1.14 1.18 1.32 1.51 1.51 1.43 1.52 1.67 1.73 1.69 1.75 1.80 1.83 1.81 1.67 1.61 1.55
0.61 0.72 0.88 0.55 0.31 0.25 0.27 0.32 0.46 0.64 0.69 0.77 0.87 0.99 1.31 1.24 1.04 0.95 0.98 1.09 1.14 1.20 1.21 1.38 1.54 1.54 1.43 1.28 1.16 1.14 1.11 1.08 1.09 1.12 1.23 1.34 1.38 1.41 1.53 1.64 1.60 1.55 1.56 1.63 1.73 1.74 1.73 1.61 1.54
0.68 0.69 0.61 0.39 0.29 0.26 0.29 0.37 0.43 0.56 0.67 0.88 0.90 1.01 1.35 1.43 1.13 0.93 1.07 1.36 1.46 1.40 1.23 1.37 1.52 1.38 1.35 1.32 1.18 1.15 1.13 1.09 1.09 1.09 1.18 1.25 1.37 1.44 1.58 1.78 1.73 1.60 1.51 1.55 1.65 1.65 1.75 1.56 1.47
0.43 0.48 0.44 0.36 0.28 0.25 0.25 0.30 0.42 0.57 0.70 0.75 0.88 1.05 1.23 1.21 1.05 1.06 1.29 1.74 1.98 1.91 1.64 1.37 1.36 1.35 1.28 1.24 1.25 1.26 1.12 1.04 1.10 1.20 1.31 1.37 1.47 1.58 1.71 1.81 1.93 1.79 1.66 1.71 1.81 1.72 1.61 1.57 1.58
0.24 0.40 0.34 0.25 0.20 0.23 0.26 0.29 0.37 0.42 0.52 0.74 0.96 1.14 1.09 0.92 0.97 1.20 1.49 1.86 2.11 1.97 1.85 1.59 1.46 1.43 1.41 1.33 1.21 1.42 1.29 1.19 1.32 1.61 1.70 1.88 2.02 1.94 2.05 1.95 2.13 2.02 2.01 2.20 2.29 2.16 2.00 1.91 1.89
0.16 0.24 0.17 0.11 0.11 0.14 0.18 0.26 0.32 0.46 0.77 1.22 1.47 1.35 1.13 1.01 1.12 1.38 1.62 1.70 1.80 1.84 1.83 1.87 1.67 1.61 1.61 1.48 1.68 2.06 1.83 1.80 2.03 2.17 2.10 2.60 2.86 2.68 2.15 2.22 2.58 2.61 2.69 2.81 2.87 2.90 2.60 2.31 2.11
0.09 0.12 0.09 0.07 0.07 0.10 0.13 0.20 0.30 0.49 1.01 1.49 1.70 1.41 1.21 1.21 1.31 1.46 1.83 1.98 2.05 2.04 1.91 2.02 1.92 1.86 1.95 2.06 2.08 2.30 2.47 2.62 2.73 2.68 2.72 3.07 2.95 2.60 2.32 2.55 2.98 3.04 3.03 3.07 3.23 3.30 2.80 2.70 2.70
0.06 0.06 0.06 0.05 0.06 0.07 0.10 0.20 0.39 0.65 1.04 1.31 1.24 1.11 1.10 1.36 1.56 1.75 2.07 2.39 2.47 2.52 2.46 2.24 2.15 2.39 2.49 2.38 2.33 2.22 2.07 2.13 2.39 2.52 2.48 3.01 3.42 3.27 3.11 3.23 3.21 3.38 3.58 3.86 3.55 3.47 3.21 3.12 2.92
0.04 0.04 0.05 0.05 0.06 0.09 0.12 0.21 0.42 0.73 0.93 0.98 0.86 0.91 1.19 1.53 1.78 2.23 2.66 2.74 2.71 2.96 3.11 2.90 2.84 2.82 2.69 2.78 2.45 2.12 2.04 1.90 1.89 2.27 2.56 2.81 3.18 3.35 3.37 3.19 3.21 3.04 3.18 3.36 3.37 3.09 3.17 3.29 3.21
0.03 0.04 0.06 0.08 0.08 0.12 0.20 0.28 0.40 0.64 0.73 0.74 0.80 1.04 1.25 1.67 1.98 2.51 3.01 3.06 3.15 3.42 3.64 3.52 3.52 3.34 3.06 2.84 2.73 2.55 2.28 2.19 1.94 2.22 2.36 2.64 3.01 3.15 3.04 3.11 3.24 3.05 3.03 3.03 3.06 3.11 3.38 3.54 3.57
0.04 0.07 0.13 0.14 0.14 0.14 0.23 0.47 0.54 0.70 0.78 0.75 0.93 1.09 1.45 1.90 2.20 2.52 2.74 3.13 3.56 3.94 4.01 3.98 4.00 3.92 3.89 3.58 3.19 2.81 2.69 2.40 2.34 2.37 2.31 2.55 2.89 3.10 3.03 3.01 2.88 2.85 2.90 3.04 3.08 3.20 3.37 3.24 3.32
0.07 0.14 0.27 0.26 0.21 0.20 0.27 0.71 0.88 0.81 0.78 0.86 1.01 1.32 1.58 1.88 2.29 2.50 2.81 3.16 3.58 4.08 4.47 4.57 4.09 4.08 4.14 4.06 3.76 3.33 3.26 3.09 2.90 2.61 2.49 2.47 2.73 2.81 2.86 2.67 2.59 2.63 2.51 2.65 2.88 2.92 2.98 3.08 3.26
0.12 0.19 0.26 0.34 0.24 0.22 0.36 0.89 1.21 0.91 0.73 0.88 1.16 1.45 1.80 2.04 2.44 2.56 2.73 3.01 3.48 4.36 5.25 5.27 4.78 4.38 4.12 4.06 4.09 3.97 3.84 3.49 3.04 2.82 2.73 2.58 2.48 2.30 2.36 2.34 2.43 2.35 2.33 2.43 2.29 2.73 2.90 3.05 3.15
0.11 0.17 0.28 0.42 0.29 0.29 0.43 0.85 0.89 0.79 0.94 0.95 1.02 1.21 1.53 1.66 1.96 2.22 2.50 3.05 3.86 5.06 5.83 5.74 5.13 4.70 4.38 4.21 4.08 4.05 3.83 3.57 3.11 2.93 2.77 2.48 2.48 2.18 2.18 2.15 2.25 2.15 2.29 2.51 2.63 2.87 2.85 2.77 2.84
0.09 0.15 0.27 0.32 0.26 0.36 0.47 0.69 0.80 0.93 1.11 1.10 0.96 1.00 1.29 1.49 1.77 2.23 2.78 3.62 4.70 5.63 5.90 5.40 4.93 4.61 4.22 3.86 3.31 3.00 3.09 3.03 2.76 2.48 2.16 2.07 2.01 2.10 2.30 2.10 2.30 2.13 2.22 2.34 2.42 2.55 2.58 2.49 2.56
0.10 0.16 0.26 0.32 0.24 0.30 0.47 0.77 1.09 1.10 1.03 0.97 1.03 1.05 1.15 1.51 1.95 2.68 3.69 4.27 4.55 4.68 4.42 4.08 3.83 3.63 3.19 2.92 2.81 2.63 2.69 2.44 2.29 2.21 2.24 1.89 1.79 1.88 1.87 2.11 2.15 2.15 2.32 2.36 2.35 2.46 2.42 2.23 2.31
0.13 0.17 0.25 0.32 0.23 0.27 0.51 1.00 1.27 1.26 1.04 0.89 0.97 0.99 1.15 1.55 2.14 2.96 3.54 3.66 3.42 3.09 2.96 2.90 2.97 2.73 2.62 2.68 2.63 2.58 2.65 2.39 2.18 2.10 2.16 1.84 1.61 1.62 1.72 1.83 1.97 2.18 2.10 2.22 2.26 2.18 2.25 2.29 2.29
0.13 0.11 0.10 0.14 0.24 0.43 0.63 1.27 1.48 1.24 1.16 0.98 1.01 1.02 1.04 1.32 1.71 2.14 2.41 2.28 2.37 2.50 2.50 2.61 2.70 2.45 2.44 2.41 2.16 2.11 2.09 2.00 1.94 1.95 2.04 2.10 1.74 1.57 1.55 1.65 1.80 1.96 1.90 2.11 1.89 2.01 2.23 2.31 2.19
0.07 0.06 0.08 0.16 0.31 0.52 0.71 1.01 1.22 1.04 1.19 0.98 0.88 0.89 0.83 1.00 1.14 1.28 1.40 1.52 1.71 1.82 2.00 2.26 2.51 2.45 2.28 2.11 2.08 2.17 2.04 2.03 2.03 2.07 2.14 2.20 2.00 1.75 1.58 1.65 1.78 1.85 1.79 1.83 1.82 2.16 2.17 2.09 2.04
0.06 0.09 0.19 0.30 0.48 1.00 0.96 0.94 1.14 1.10 1.21 0.97 0.81 0.72 0.75 0.87 1.01 1.06 1.10 1.22 1.37 1.51 1.74 1.99 2.32 2.37 2.25 2.10 2.03 2.10 2.17 2.16 2.10 2.11 2.09 1.91 1.86 1.86 1.71 1.70 1.79 1.72 1.67 1.69 1.75 2.00 2.03 2.08 2.17
0.08 0.13 0.35 0.71 1.08 1.24 0.81 0.89 1.12 0.92 0.87 0.73 0.52 0.51 0.64 0.83 0.98 1.06 1.00 0.97 1.02 1.18 1.33 1.43 1.66 1.93 2.03 1.99 1.96 2.00 2.16 2.10 1.94 1.85 1.79 1.75 1.59 1.54 1.58 1.65 1.79 1.63 1.57 1.65 1.87 1.98 1.98 2.06 2.10
0.07 0.08 0.20 0.36 0.46 0.62 0.78 1.16 1.26 0.93 0.65 0.41 0.33 0.45 0.68 0.82 0.84 0.90 0.90 0.86 0.83 0.93 1.11 1.25 1.48 1.66 1.86 1.89 1.87 1.92 2.01 1.94 1.80 1.82 1.64 1.61 1.55 1.47 1.56 1.61 1.60 1.57 1.56 1.58 1.92 1.86 1.89 1.96 1.89
0.08 0.08 0.09 0.15 0.19 0.40 0.79 1.09 1.05 0.82 0.64 0.46 0.39 0.45 0.66 0.69 0.66 0.80 0.87 0.94 0.94 0.92 1.03 1.18 1.44 1.70 1.90 2.00 2.04 1.99 2.01 2.02 1.97 1.90 1.68 1.49 1.61 1.53 1.63 1.68 1.63 1.64 1.77 1.92 2.08 1.94 1.95 2.01 1.82
0.08 0.09 0.09 0.11 0.20 0.35 0.63 1.03 1.23 1.03 0.80 0.63 0.54 0.53 0.64 0.68 0.69 0.91 1.06 1.03 0.90 0.78 0.85 1.04 1.30 1.67 1.88 2.02 2.01 1.91 2.08 2.01 1.97 1.91 1.75 1.58 1.58 1.57 1.69 1.81 1.79 1.84 1.88 2.01 2.10 1.93 2.00 1.99 1.87
0.09 0.09 0.11 0.11 0.13 0.22 0.50 0.71 0.66 0.63 0.60 0.63 0.68 0.63 0.54 0.64 0.77 0.94 1.14 1.11 0.88 0.77 0.76 0.90 1.23 1.52 1.68 1.80 1.88 1.80 1.77 1.71 1.72 1.78 1.77 1.74 1.72 1.66 1.68 1.77 1.81 1.79 1.83 1.91 2.01 1.86 1.91 1.89 1.90
0.11 0.12 0.15 0.17 0.15 0.14 0.27 0.51 0.39 0.44 0.55 0.62 0.69 0.76 0.77 0.79 0.83 0.80 0.94 1.10 1.01 0.89 0.83 0.99 1.27 1.45 1.54 1.60 1.62 1.62 1.66 1.64 1.58 1.56 1.65 1.71 1.62 1.53 1.59 1.64 1.61 1.54 1.64 1.80 1.84 1.77 1.85 1.89 1.85